[[{"header":{"parameterUnit":"m.s-1","parameterCategory":1,"la1":30.2991,"la2":30.254,"lo1":-89.0895,"lo2":-89.0444,"dy":0.0017,"dx":0.0017,"nx":28,"ny":28,"refTime":"2026-02-03T09:00:00:Z","depth":0,"parameterNumber":2,"parameterNumberName":"U-component_of_WINDS"},"data":[0,0,0,0,0,0,0,0,0,0,0,0,0,0,0,0,0,0,0,0,0,0,0,0,0,0,0,0,0,0,0,0,0,0,0,0,0,0,0,0,0,0,0,0,0,0,0,0,0,0,0,0,0,0,0,0,0,0,1.4741,1.4741,0,1.4793,1.4794,1.4794,1.4806,1.4806,1.4806,1.4805,1.4859,1.486,1.4862,0,0,0,0,0,0,0,0,0,0,0,0,0,1.4652,1.4653,1.474,1.4741,1.4742,1.4793,1.4794,1.4794,1.4806,1.4806,1.4805,1.4805,1.4858,1.486,1.4862,0,0,0,0,0,0,0,0,0,0,0,0,0,1.4696,1.4654,1.474,1.4754,1.4756,1.4793,1.4794,1.4795,1.4806,1.4806,1.4805,1.4805,1.4857,1.486,1.4863,1.489,0,0,1.4871,1.4872,0,0,0,0,0,0,0,0,1.4693,1.4699,1.4751,1.4753,1.4755,1.4793,1.4782,1.4827,1.4807,1.4787,1.4805,1.4805,1.4837,1.4841,1.4852,1.4893,1.4895,1.4871,1.4873,1.4874,1.4874,0,0,0,0,0,0,0,1.469,1.4697,1.4761,1.4752,1.4754,1.4758,1.4764,1.4791,1.4815,1.4789,1.479,1.4796,1.4838,1.485,1.4854,1.4896,1.4871,1.4873,1.4875,1.4876,1.4963,1.4964,0,0,0,0,0,0,1.4685,1.4694,1.476,1.4763,1.4722,1.476,1.4766,1.4781,1.4814,1.4819,1.4796,1.4796,1.4846,1.4851,1.4856,1.4891,1.4874,1.4876,1.4878,1.4962,1.4963,1.4964,0,0,0,0,0,0,1.4683,1.469,1.4758,1.4729,1.4738,1.4762,1.4779,1.4782,1.4794,1.482,1.4824,1.4804,1.4845,1.4852,1.4882,1.4893,1.4877,1.488,1.4962,1.4963,1.4964,1.4962,0,0,0,0,0,0,1.468,1.469,1.47,1.4729,1.4739,1.4782,1.4779,1.4784,1.4799,1.4799,1.4828,1.4833,1.4845,1.4878,1.4885,1.4897,1.4882,1.4961,1.4962,1.4963,1.4961,1.4962,1.4964,0,0,0,0,0,1.4677,1.4696,1.47,1.4708,1.4752,1.4783,1.4789,1.4803,1.48,1.481,1.4827,1.4832,1.4891,1.4881,1.4888,1.4901,1.496,1.4962,1.4963,1.496,1.4962,1.4964,0,0,0,0,0,0,1.4667,1.47,1.4705,1.4734,1.4756,1.4785,1.4799,1.4805,1.4827,1.4827,1.4844,1.4851,1.488,1.4894,1.4882,1.4931,1.4926,1.4929,1.492,1.4923,1.4924,1.492,1.4884,0,0,0,0,0,1.4669,1.469,1.4718,1.4742,1.4752,1.4774,1.4788,1.4797,1.482,1.4829,1.4848,1.487,1.4894,1.4909,1.4932,1.4963,1.497,1.4976,1.4978,1.4979,1.4981,1.5,1.5004,1.4969,1.4969,1.4969,0,0,1.4671,1.4692,1.4705,1.4741,1.4758,1.4781,1.4781,1.4805,1.4822,1.4833,1.4862,1.4877,1.4903,1.4934,1.4949,1.4947,1.4993,1.4981,1.4982,1.4984,1.5002,1.5006,1.5008,1.4971,1.497,1.497,0,0,1.4688,1.4706,1.4728,1.4746,1.4773,1.4788,1.4793,1.4822,1.4833,1.4863,1.4872,1.4893,1.4933,1.4952,1.4967,1.4994,1.4999,1.5001,1.5009,1.5027,1.503,1.5032,1.5043,1.5046,1.5003,1.5003,1.5003,0,1.4688,1.4722,1.4739,1.4763,1.4779,1.479,1.4813,1.483,1.4864,1.4875,1.4872,1.4925,1.4943,1.4979,1.4986,1.4997,1.5005,1.4997,1.5028,1.5031,1.5033,1.5044,1.5047,1.5003,1.5003,1.5003,1.5003,0,1.4722,1.4746,1.476,1.4793,1.4811,1.4834,1.4855,1.4871,1.488,1.4895,1.4927,1.4949,1.4978,1.4988,1.4996,1.5026,1.5024,1.5025,1.502,1.5036,1.5046,1.505,1.5003,1.5003,1.5003,1.5003,0,0,1.4732,1.4775,1.478,1.4796,1.4828,1.4847,1.4872,1.4901,1.4915,1.4938,1.496,1.4995,1.4997,1.5013,1.5024,1.5041,1.5062,1.504,1.5041,1.5043,1.5098,1.5097,1.5101,1.5066,1.5067,1.5067,1.5096,0,1.4753,1.4797,1.4813,1.485,1.4873,1.4886,1.4908,1.493,1.4946,1.4968,1.4985,1.501,1.501,1.5021,1.5037,1.5056,1.5073,1.5054,1.5087,1.5088,1.508,1.5106,1.5105,1.513,1.51,1.51,1.5101,0,1.4782,1.4807,1.4846,1.4877,1.4888,1.4907,1.4936,1.4957,1.4983,1.4994,1.5014,1.5024,1.5052,1.5046,1.5085,1.5071,1.5086,1.5098,1.5099,1.5102,1.5095,1.511,1.5138,1.5142,1.5107,1.5106,1.5106,0,1.4786,1.4829,1.4859,1.4872,1.4909,1.4922,1.4938,1.4965,1.4982,1.5007,1.5019,1.5047,1.5062,1.5084,1.5103,1.5097,1.5141,1.5136,1.515,1.515,1.5158,1.5157,1.5189,1.5168,1.5168,1.5168,1.5168,0,1.4808,1.4831,1.4861,1.4879,1.4907,1.4926,1.4953,1.497,1.4994,1.5016,1.5029,1.505,1.5073,1.5097,1.5112,1.5142,1.5149,1.5159,1.5162,1.5157,1.5156,1.5167,1.5166,1.5169,1.5169,1.5168,1.5168,0,1.4817,1.4838,1.4871,1.4904,1.4913,1.4931,1.496,1.4979,1.4996,1.5024,1.5032,1.5058,1.5087,1.5108,1.5146,1.5156,1.5189,1.5192,1.518,1.5182,1.5196,1.5194,1.5235,1.5242,1.5216,1.5216,1.5216,0,1.4829,1.4847,1.4883,1.4899,1.4915,1.4941,1.4959,1.4979,1.4998,1.5031,1.5046,1.5076,1.5101,1.5148,1.5171,1.52,1.5204,1.5217,1.5209,1.5204,1.5205,1.5204,1.5206,1.5218,1.5218,1.5218,1.5218,0,1.4848,1.4858,1.4883,1.4913,1.4934,1.4958,1.4983,1.4995,1.5021,1.5041,1.5071,1.5091,1.513,1.5161,1.5193,1.521,1.5219,1.5221,1.5226,1.5221,1.5213,1.5218,1.5183,1.522,1.522,1.5219,1.5219,1.5219,1.4859,1.4877,1.4905,1.4934,1.4955,1.4978,1.4997,1.5018,1.5043,1.5077,1.5088,1.512,1.5148,1.5193,1.5211,1.5236,1.5236,1.5243,1.5245,1.5246,1.5246,1.521,1.5242,1.5242,1.5242,1.5242,1.5242,0,1.488,1.4899,1.4925,1.496,1.4982,1.4989,1.5018,1.5036,1.5064,1.509,1.5115,1.5151,1.5182,1.5208,1.5239,1.5255,1.526,1.5263,1.5262,1.5266,1.5245,1.5237,1.5258,1.5258,1.5258,1.5258,1.5258,1.5258,1.4893,1.4924,1.4938,1.498,1.5,1.5031,1.5047,1.5069,1.509,1.5129,1.5155,1.5172,1.5199,1.5233,1.5261,1.5269,1.528,1.5282,1.529,1.5269,1.5267,1.5265,1.5259,1.5284,1.5284,1.5309,1.5309,1.5309]},{"header":{"parameterUnit":"m.s-1","parameterCategory":1,"la1":30.2991,"la2":30.254,"lo1":-89.0895,"lo2":-89.0444,"dy":0.0017,"dx":0.0017,"nx":28,"ny":28,"refTime":"2026-02-03T09:00:00:Z","depth":0,"parameterNumber":3,"parameterNumberName":"V-component_of_WINDS"},"data":[0,0,0,0,0,0,0,0,0,0,0,0,0,0,0,0,0,0,0,0,0,0,0,0,0,0,0,0,0,0,0,0,0,0,0,0,0,0,0,0,0,0,0,0,0,0,0,0,0,0,0,0,0,0,0,0,0,0,-7.8265,-7.8266,0,-7.8353,-7.8354,-7.8355,-7.8306,-7.8304,-7.8302,-7.8299,-7.8382,-7.8386,-7.8391,0,0,0,0,0,0,0,0,0,0,0,0,0,-7.805,-7.8054,-7.8265,-7.8266,-7.8267,-7.8353,-7.8354,-7.8355,-7.8307,-7.8304,-7.8301,-7.8298,-7.8381,-7.8386,-7.8391,0,0,0,0,0,0,0,0,0,0,0,0,0,-7.8141,-7.8055,-7.8265,-7.8254,-7.8253,-7.8353,-7.8354,-7.8356,-7.8307,-7.8304,-7.83,-7.8297,-7.8379,-7.8385,-7.8392,-7.8505,0,0,-7.8412,-7.8415,0,0,0,0,0,0,0,0,-7.8136,-7.8149,-7.8254,-7.8255,-7.8255,-7.8315,-7.8309,-7.8405,-7.8308,-7.8287,-7.8299,-7.8295,-7.8362,-7.837,-7.8394,-7.8509,-7.8512,-7.8413,-7.8417,-7.842,-7.8422,0,0,0,0,0,0,0,-7.813,-7.8145,-7.8299,-7.8256,-7.8256,-7.8242,-7.8251,-7.8327,-7.8343,-7.8288,-7.8285,-7.8297,-7.8362,-7.8388,-7.8396,-7.8514,-7.8413,-7.8419,-7.8423,-7.8425,-7.8728,-7.8732,0,0,0,0,0,0,-7.8125,-7.814,-7.8297,-7.8302,-7.8185,-7.8249,-7.8259,-7.8299,-7.8342,-7.8346,-7.83,-7.8294,-7.8378,-7.8388,-7.8398,-7.8536,-7.842,-7.8426,-7.843,-7.8724,-7.8729,-7.8733,0,0,0,0,0,0,-7.812,-7.8139,-7.8293,-7.822,-7.8239,-7.8257,-7.8302,-7.8303,-7.8329,-7.8351,-7.8353,-7.8324,-7.8376,-7.8389,-7.848,-7.8538,-7.8429,-7.8435,-7.8719,-7.8726,-7.8731,-7.881,0,0,0,0,0,0,-7.8114,-7.8138,-7.8182,-7.8222,-7.8243,-7.8375,-7.8306,-7.8307,-7.8342,-7.8335,-7.8374,-7.8377,-7.8374,-7.847,-7.8487,-7.8545,-7.844,-7.8714,-7.8722,-7.8729,-7.8802,-7.8818,-7.8831,0,0,0,0,0,-7.8107,-7.8198,-7.8184,-7.8204,-7.8299,-7.8378,-7.839,-7.8387,-7.8347,-7.8391,-7.8405,-7.8376,-7.8529,-7.848,-7.8498,-7.8559,-7.871,-7.872,-7.8729,-7.8795,-7.8815,-7.8831,0,0,0,0,0,0,-7.8161,-7.8203,-7.8188,-7.8295,-7.8334,-7.837,-7.8425,-7.8407,-7.8456,-7.8447,-7.8439,-7.8448,-7.8543,-7.856,-7.8505,-7.8672,-7.8613,-7.8626,-7.8658,-7.8676,-7.8691,-7.8684,-7.8446,0,0,0,0,0,-7.8186,-7.8249,-7.8282,-7.8373,-7.8394,-7.8407,-7.8441,-7.8436,-7.8474,-7.8489,-7.851,-7.8547,-7.8604,-7.8641,-7.8694,-7.8805,-7.8813,-7.8856,-7.887,-7.8882,-7.8893,-7.8955,-7.8975,-7.8763,-7.8763,-7.8763,0,0,-7.8237,-7.8268,-7.8307,-7.8385,-7.8414,-7.8479,-7.842,-7.849,-7.8538,-7.8499,-7.8588,-7.8605,-7.8645,-7.8747,-7.8793,-7.8764,-7.8954,-7.8894,-7.8903,-7.8908,-7.8967,-7.8987,-7.9005,-7.877,-7.8768,-7.8767,0,0,-7.8363,-7.8393,-7.8474,-7.8506,-7.8553,-7.8561,-7.8581,-7.8621,-7.8632,-7.8721,-7.8694,-7.875,-7.8847,-7.8878,-7.8906,-7.9049,-7.9025,-7.9066,-7.9142,-7.9203,-7.9219,-7.9234,-7.9286,-7.9305,-7.9078,-7.9078,-7.9078,0,-7.842,-7.8518,-7.8517,-7.8591,-7.8626,-7.8598,-7.868,-7.871,-7.877,-7.8795,-7.8762,-7.8886,-7.8911,-7.9021,-7.9057,-7.908,-7.9102,-7.9061,-7.9218,-7.9232,-7.9246,-7.9296,-7.9315,-7.9083,-7.9082,-7.9082,-7.9081,0,-7.8587,-7.8655,-7.8715,-7.8779,-7.882,-7.8897,-7.8907,-7.8949,-7.8941,-7.8953,-7.9045,-7.9075,-7.9135,-7.9161,-7.9152,-7.9271,-7.9252,-7.9219,-7.9159,-7.9271,-7.9318,-7.9337,-7.909,-7.9088,-7.9086,-7.9085,0,0,-7.8746,-7.8812,-7.8834,-7.8864,-7.8916,-7.8968,-7.9044,-7.9106,-7.9143,-7.9186,-7.925,-7.9335,-7.9306,-7.9339,-7.9333,-7.9387,-7.95,-7.9347,-7.9348,-7.9375,-7.9635,-7.966,-7.9682,-7.9485,-7.9488,-7.9491,-7.9632,0,-7.8877,-7.9014,-7.9017,-7.9141,-7.9206,-7.9182,-7.9249,-7.9287,-7.9301,-7.9356,-7.937,-7.9431,-7.9388,-7.9408,-7.9459,-7.9475,-7.9552,-7.9465,-7.9543,-7.9546,-7.9534,-7.9706,-7.9732,-7.9863,-7.965,-7.9653,-7.9655,0,-7.9047,-7.9101,-7.9233,-7.9279,-7.9306,-7.9366,-7.9425,-7.9479,-7.9522,-7.9528,-7.9567,-7.9555,-7.9632,-7.9571,-7.9677,-7.9618,-7.965,-7.9663,-7.9668,-7.9675,-7.9607,-7.9718,-7.9904,-7.9924,-7.9683,-7.9681,-7.9679,0,-7.9152,-7.9257,-7.9351,-7.9377,-7.9432,-7.9476,-7.95,-7.954,-7.9578,-7.9629,-7.9654,-7.9712,-7.9743,-7.9788,-7.9791,-7.9747,-7.9899,-7.9838,-7.9906,-7.9906,-7.9939,-7.9937,-8.0134,-7.9959,-7.9959,-7.9958,-7.9958,0,-7.9298,-7.938,-7.94,-7.9457,-7.9549,-7.9551,-7.9641,-7.9662,-7.9699,-7.9759,-7.9741,-7.9797,-7.9799,-7.9856,-7.9859,-7.9948,-7.9962,-7.9968,-7.9968,-7.9971,-7.997,-7.9991,-7.9982,-7.9964,-7.9962,-7.9961,-7.9961,0,-7.943,-7.9447,-7.9548,-7.9594,-7.9607,-7.9673,-7.9711,-7.9766,-7.978,-7.9857,-7.9875,-7.9895,-7.9963,-7.9971,-8.0048,-8.005,-8.0158,-8.0147,-8.0144,-8.0143,-8.0211,-8.0205,-8.0428,-8.0458,-8.0264,-8.0266,-8.0267,0,-7.9522,-7.9586,-7.9641,-7.9682,-7.971,-7.9775,-7.9816,-7.9821,-7.9863,-7.992,-7.9968,-8.0034,-8.0088,-8.0196,-8.0217,-8.0277,-8.0268,-8.0342,-8.0276,-8.0278,-8.027,-8.0267,-8.0274,-8.0355,-8.0357,-8.0359,-8.036,0,-7.9685,-7.9691,-7.9751,-7.9817,-7.9867,-7.9917,-7.9964,-7.9998,-8.0009,-8.0057,-8.0128,-8.017,-8.0252,-8.0318,-8.0378,-8.0401,-8.0383,-8.0381,-8.04,-8.0403,-8.0399,-8.0404,-8.018,-8.0376,-8.0374,-8.0373,-8.0372,-8.0371,-7.98,-7.9857,-7.9906,-7.9974,-8.0012,-8.0057,-8.0112,-8.0135,-8.0195,-8.0264,-8.0263,-8.0341,-8.0385,-8.0464,-8.0492,-8.0552,-8.0527,-8.0555,-8.0562,-8.0568,-8.0576,-8.039,-8.0563,-8.0562,-8.0562,-8.0562,-8.0561,0,-7.9962,-7.9994,-8.0057,-8.0127,-8.0181,-8.0163,-8.0216,-8.0262,-8.0332,-8.0376,-8.043,-8.0513,-8.0578,-8.0606,-8.0669,-8.0712,-8.0706,-8.0729,-8.0726,-8.0732,-8.0594,-8.0572,-8.0733,-8.0733,-8.0733,-8.0733,-8.0733,-8.0733,-8.0053,-8.0149,-8.0162,-8.0276,-8.0306,-8.0385,-8.0417,-8.0459,-8.0495,-8.0589,-8.0645,-8.0663,-8.0701,-8.0768,-8.0827,-8.0833,-8.0858,-8.0885,-8.0888,-8.0758,-8.0741,-8.0724,-8.0703,-8.089,-8.089,-8.102,-8.1022,-8.1022]}]]